Tracking 17267 objects as of 31-August-2015
HD Live streaming from Space Station

CRRES DEB (CANISTER)

Track CRRES DEB (CANISTER) now!
CRRES DEB (CANISTER) is classified as:


NORAD ID: 21590
Int'l Code: 1990-065F
Perigee: 354.0 km
Apogee: 31,322.3 km
Inclination: 20.5 °
Period: 549.0 minutes
Semi major axis: 22209 km
RCS: 0.1267 m2 (medium)
Launch date: July 25, 1990
Source: United States (US)

Note: This is SATELLITE DEBRIS
Your satellite tracking list
Your tracking list is empty





NASA's NSSDC Master Catalog

Two Line Element Set (TLE):
1 21590U 90065F   15242.29275887  .00000281  00000-0  28976-3 0  9995
2 21590 020.5283 349.8872 6971984 256.0986 023.4891 02.62304307216182

Source of the keplerian elements: AFSPC

N2YO: 248